DW9186 Weather Reports


time (UTC)temp
C
wind
direction
speed
KPH
gust
KPH
rain 1hr
cm
rain 24hr
cm
rain mn
cm
humidity
%
barometer
mb
20260906141103 26 265 1.6 3.2 0.00 1.73 0.00 79 1011.5
20260906140603 26 265 0.0 1.6 0.00 1.73 0.00 80 1011.5
20260906140103 26 265 0.0 1.6 0.00 1.73 0.00 81 1011.4
20260906135603 26 263 0.0 3.2 0.00 1.73 0.00 80 1011.4
20260906135103 25 262 0.0 1.6 0.00 1.73 0.00 80 1011.5
20260906134603 25 262 0.0 1.6 0.00 1.73 0.00 82 1011.5
20260906134103 25 262 0.0 1.6 0.00 1.73 0.00 85 1011.5
20260906133603 25 262 1.6 3.2 0.00 1.73 0.00 84 1011.7
20260906133103 24 263 1.6 1.6 0.00 1.73 0.00 85 1011.9
20260906132604 24 263 0.0 0.0 0.00 1.73 0.00 88 1012.0
20260906132104 23 263 0.0 1.6 0.00 1.73 0.00 88 1012.1
20260906131603 23 263 0.0 1.6 0.00 1.73 0.00 91 1012.1
20260906131103 23 263 0.0 1.6 0.00 1.73 0.00 92 1012.2
20260906130603 22 263 0.0 1.6 0.00 1.73 0.00 93 1012.2
20260906130103 22 263 0.0 1.6 0.00 1.73 0.00 93 1012.2
20260906125602 22 263 0.0 1.6 0.00 1.73 0.00 93 1012.2
20260906125103 22 263 0.0 1.6 0.00 1.73 0.00 94 1012.2
20260906124603 22 263 1.6 1.6 0.00 1.73 0.00 94 1012.2
20260906124103 22 263 0.0 1.6 0.00 1.73 0.00 94 1012.1
20260906123603 22 263 0.0 3.2 0.00 1.73 0.00 95 1012.1
20260906122603 21 262 0.0 1.6 0.00 1.73 0.00 95 1012.2
20260906122103 21 262 0.0 1.6 0.00 1.73 0.00 95 1012.2
20260906121603 21 262 0.0 1.6 0.00 1.73 0.00 95 1012.0
20260906121103 21 262 0.0 0.0 0.00 1.73 0.00 95 1012.1
20260906120604 21 262 0.0 0.0 0.00 1.73 0.00 95 1012.0
20260906115603 21 262 0.0 1.6 0.00 1.73 1.73 95 1012.1
20260906114603 21 262 0.0 1.6 0.00 1.73 1.73 95 1012.2
20260906114103 21 262 0.0 1.6 0.00 1.73 1.73 95 1012.1
20260906113603 21 262 0.0 1.6 0.00 1.73 1.73 95 1012.2
20260906113103 21 262 0.0 1.6 0.00 1.73 1.73 95 1012.1
20260906112603 21 262 0.0 0.0 0.00 1.73 1.73 95 1012.0
20260906112103 21 262 0.0 1.6 0.00 1.73 1.73 95 1012.0
20260906111604 21 262 0.0 0.0 0.00 1.73 1.73 94 1011.9
20260906111103 21 262 0.0 0.0 0.00 1.73 1.73 94 1011.7
20260906110603 21 262 0.0 1.6 0.00 1.73 1.73 94 1011.7
20260906110103 21 262 0.0 1.6 0.00 1.73 1.73 94 1011.8
20260906105603 21 262 0.0 1.6 0.00 1.73 1.73 94 1011.8
20260906105102 21 262 0.0 1.6 0.00 1.73 1.73 94 1011.8
20260906104603 21 262 0.0 1.6 0.00 1.73 1.73 94 1011.8
20260906103604 21 262 0.0 1.6 0.00 1.73 1.73 94 1011.4
20260906103103 21 262 0.0 1.6 0.00 1.73 1.73 94 1011.3
20260906102604 21 262 0.0 3.2 0.00 1.73 1.73 94 1011.4
20260906101603 21 262 1.6 3.2 0.00 1.73 1.73 94 1011.0
20260906101103 21 262 0.0 1.6 0.00 1.73 1.73 94 1010.9
20260906100603 21 262 0.0 1.6 0.00 1.73 1.73 94 1010.9
20260906100103 21 262 0.0 1.6 0.00 1.73 1.73 94 1010.8
20260906095603 21 262 1.6 3.2 0.00 1.73 1.73 94 1010.8
20260906095103 21 262 0.0 0.0 0.00 1.73 1.73 93 1010.7
20260906094604 21 262 0.0 1.6 0.00 1.73 1.73 93 1010.7
20260906094103 21 262 0.0 1.6 0.00 1.73 1.73 93 1010.7
20260906093603 21 262 0.0 0.0 0.00 1.73 1.73 93 1010.8
20260906093103 21 262 0.0 0.0 0.00 1.73 1.73 93 1010.8
20260906092603 21 262 0.0 1.6 0.00 1.73 1.73 92 1010.9
20260906092103 22 262 0.0 1.6 0.00 1.73 1.73 92 1011.0
20260906091603 22 262 0.0 1.6 0.00 1.73 1.73 91 1010.8
20260906091103 22 262 0.0 1.6 0.00 1.73 1.73 91 1010.8
20260906090604 22 262 1.6 3.2 0.00 1.73 1.73 91 1010.8
20260906090104 22 263 1.6 4.8 0.00 1.73 1.73 91 1010.9
20260906085104 21 263 3.2 4.8 0.00 1.73 1.73 92 1010.7
20260906084603 21 258 1.6 3.2 0.00 1.73 1.73 92 1010.4
20260906084104 21 257 1.6 3.2 0.03 1.73 1.73 91 1010.3
20260906083604 22 257 1.6 3.2 0.03 1.73 1.73 90 1010.2
20260906083104 22 257 1.6 4.8 0.03 1.73 1.73 89 1010.4
20260906082603 22 257 3.2 4.8 0.05 1.73 1.73 88 1010.6
20260906081604 22 312 1.6 4.8 0.10 1.73 1.73 89 1010.9
20260906081103 21 57 1.6 8.0 0.25 1.73 1.73 90 1010.9
20260906080603 21 24 3.2 4.8 0.28 1.73 1.73 91 1011.1
20260906080103 21 355 3.2 9.7 0.28 1.73 1.73 91 1011.2
20260906075104 21 327 4.8 12.9 0.30 1.73 1.73 93 1011.4
20260906074603 22 323 4.8 22.5 0.36 1.73 1.73 93 1011.5
20260906074103 22 318 4.8 12.9 0.43 1.70 1.70 93 1011.5
20260906073603 22 333 4.8 12.9 0.48 1.70 1.70 93 1011.7
20260906072104 22 330 3.2 8.0 0.46 1.65 1.65 92 1011.8
20260906071103 22 331 1.6 3.2 0.33 1.47 1.47 94 1011.6
20260906070603 22 338 1.6 3.2 0.51 1.45 1.45 94 1011.5
20260906065603 23 340 1.6 4.8 1.22 1.42 1.42 94 1011.6
20260906065104 23 340 1.6 3.2 1.35 1.42 1.42 94 1011.5
20260906064604 23 340 1.6 3.2 1.37 1.37 1.37 94 1011.3
20260906064104 23 340 1.6 3.2 1.27 1.27 1.27 93 1011.5
20260906063604 23 340 1.6 3.2 1.22 1.22 1.22 93 1011.6
20260906062603 23 52 1.6 4.8 1.22 1.22 1.22 94 1011.4
20260906062104 23 67 1.6 4.8 1.19 1.19 1.19 93 1011.1
20260906061604 23 75 3.2 4.8 1.19 1.19 1.19 91 1010.9
20260906061103 23 57 0.0 3.2 1.14 1.14 1.14 90 1011.0
20260906060603 24 53 1.6 3.2 0.94 0.94 0.94 89 1011.5
20260906060104 25 53 0.0 4.8 0.61 0.61 0.61 86 1011.6
20260906055603 25 43 3.2 4.8 0.20 0.20 0.20 85 1011.8
20260906055103 26 336 4.8 9.7 0.08 0.08 0.08 81 1011.6
20260906054604 26 339 1.6 4.8 0.00 0.00 0.00 79 1011.4
20260906054103 26 341 0.0 1.6 0.00 0.00 0.00 80 1011.4
20260906053604 26 341 0.0 3.2 0.00 0.00 0.00 80 1011.1
20260906053103 26 341 0.0 4.8 0.00 0.00 0.00 81 1011.3
20260906052604 26 340 4.8 8.0 0.00 0.00 0.00 82 1011.3
20260906052103 26 71 1.6 4.8 0.00 0.00 0.00 81 1011.0
20260906051604 27 71 0.0 1.6 0.00 0.00 0.00 81 1010.8
20260906051107 27 71 1.6 3.2 0.00 0.00 0.00 79 1010.9
20260906045604 27 71 0.0 1.6 0.00 0.00 0.00 77 1010.6
20260906044603 27 71 1.6 3.2 0.00 0.00 0.00 75 1010.6
20260906044103 27 71 1.6 3.2 0.00 0.00 0.00 75 1010.8
20260906043104 28 71 0.0 3.2 0.00 0.00 0.00 72 1010.9
20260906042104 28 72 1.6 4.8 0.00 0.00 0.00 70 1010.9
20260906041604 28 77 1.6 4.8 0.00 0.00 0.00 70 1010.9
20260906041103 28 73 3.2 4.8 0.00 0.00 0.00 70 1010.9
20260906040603 28 110 4.8 9.7 0.00 0.00 0.00 70 1011.0
20260906035603 28 103 1.6 4.8 0.00 0.00 0.00 71 1011.1
20260906035103 28 103 1.6 4.8 0.00 0.00 0.00 71 1011.2
20260906034604 28 88 3.2 4.8 0.00 0.00 0.00 71 1011.1
20260906034103 27 90 3.2 4.8 0.00 0.00 0.00 72 1011.1
20260906033603 27 122 3.2 11.3 0.00 0.00 0.00 74 1011.1
20260906033103 27 118 1.6 4.8 0.00 0.00 0.00 75 1011.0
20260906032604 27 136 0.0 1.6 0.00 0.00 0.00 75 1011.0
20260906032104 27 136 0.0 0.0 0.00 0.00 0.00 75 1011.0
20260906031604 27 136 0.0 0.0 0.00 0.00 0.00 76 1010.9
20260906025604 27 136 0.0 3.2 0.00 0.00 0.00 74 1010.8
20260906025104 27 136 0.0 1.6 0.00 0.00 0.00 74 1010.8
20260906024604 27 136 0.0 1.6 0.00 0.00 0.00 73 1010.8
20260906024104 27 136 0.0 1.6 0.00 0.00 0.00 72 1010.6
20260906023104 27 136 1.6 4.8 0.00 0.00 0.00 73 1010.4
20260906022603 27 138 1.6 3.2 0.00 0.00 0.00 74 1010.4
20260906022103 27 138 1.6 3.2 0.00 0.00 0.00 77 1010.4
20260906021103 27 137 0.0 4.8 0.00 0.00 0.00 78 1010.2
20260906020105 26 268 0.0 1.6 0.00 0.00 0.00 84 1010.2
20260906015603 26 268 0.0 1.6 0.00 0.00 0.00 83 1010.2
20260906014604 26 268 0.0 1.6 0.00 0.00 0.00 83 1010.1
20260906013603 26 268 0.0 1.6 0.00 0.00 0.00 82 1009.8
20260906013104 27 268 0.0 1.6 0.00 0.00 0.00 82 1009.8
20260906012603 27 268 0.0 1.6 0.00 0.00 0.00 83 1009.8
20260906012104 27 268 0.0 1.6 0.00 0.00 0.00 82 1009.7
20260906011604 27 268 0.0 0.0 0.00 0.00 0.00 82 1009.6
20260906011104 27 268 0.0 1.6 0.00 0.00 0.00 82 1009.7
20260906010604 27 268 0.0 1.6 0.00 0.00 0.00 81 1009.6
20260906005104 27 268 0.0 0.0 0.00 0.00 0.00 80 1009.5
20260906004605 27 268 0.0 1.6 0.00 0.00 0.00 79 1009.5
20260906003604 27 268 0.0 1.6 0.00 0.00 0.00 78 1009.6
20260906003104 28 268 0.0 1.6 0.00 0.00 0.00 78 1009.6
20260906002604 28 268 0.0 1.6 0.00 0.00 0.00 75 1009.5
20260906001104 29 268 1.6 4.8 0.00 0.00 0.00 70 1010.0
20260906000604 30 271 0.0 3.2 0.00 0.00 0.00 67 1010.2
20260905235103 32 318 3.2 4.8 0.00 0.00 0.00 56 1010.4
20260905234604 32 104 1.6 3.2 0.00 0.00 0.00 56 1009.8
20260905234103 32 102 1.6 4.8 0.00 0.00 0.00 54 1009.4
20260905233604 32 101 1.6 4.8 0.00 0.00 0.00 54 1009.5
20260905233103 32 104 3.2 4.8 0.00 0.00 0.00 53 1009.4
20260905232603 32 112 3.2 8.0 0.00 0.00 0.00 53 1009.4
20260905232104 32 87 3.2 9.7 0.00 0.00 0.00 52 1009.3
20260905231603 32 96 3.2 4.8 0.00 0.00 0.00 52 1009.3
20260905231103 32 86 1.6 4.8 0.00 0.00 0.00 52 1009.3
20260905230604 32 130 3.2 4.8 0.00 0.00 0.00 52 1009.3
20260905230103 32 116 3.2 9.7 0.00 0.00 0.00 52 1009.2
20260905225603 33 81 3.2 9.7 0.00 0.00 0.00 51 1009.1
20260905225104 33 81 3.2 11.3 0.00 0.00 0.00 51 1009.1
20260905224603 33 85 4.8 11.3 0.00 0.00 0.00 50 1009.1
20260905224104 34 79 6.4 14.5 0.00 0.00 0.00 48 1009.3
20260905223604 35 84 4.8 11.3 0.00 0.00 0.00 46 1009.2
20260905223103 36 120 3.2 8.0 0.00 0.00 0.00 43 1009.2
20260905222603 37 125 6.4 16.1 0.00 0.00 0.00 42 1009.3
20260905222104 37 355 1.6 4.8 0.00 0.00 0.00 46 1009.0
20260905221603 37 349 0.0 1.6 0.00 0.00 0.00 46 1009.0
20260905221104 37 0 1.6 4.8 0.00 0.00 0.00 44 1009.1
20260905220604 37 354 1.6 4.8 0.00 0.00 0.00 46 1009.1
20260905220103 37 355 1.6 4.8 0.00 0.00 0.00 44 1009.1
20260905215604 37 355 1.6 3.2 0.00 0.00 0.00 44 1009.0
20260905215104 37 355 3.2 4.8 0.00 0.00 0.00 45 1009.1
20260905214602 37 267 1.6 4.8 0.00 0.00 0.00 44 1009.1
20260905214102 37 265 3.2 4.8 0.00 0.00 0.00 44 1009.1
20260905213602 37 279 3.2 4.8 0.00 0.00 0.00 43 1009.2
20260905213102 37 335 1.6 3.2 0.00 0.00 0.00 43 1009.2
20260905212602 37 325 3.2 4.8 0.00 0.00 0.00 42 1009.2
20260905212102 37 317 3.2 4.8 0.00 0.00 0.00 44 1009.2
20260905211602 37 309 1.6 4.8 0.00 0.00 0.00 44 1009.1
20260905211102 37 299 1.6 4.8 0.00 0.00 0.00 44 1009.1
20260905210602 37 305 0.0 4.8 0.00 0.00 0.00 46 1009.1
20260905205601 37 333 3.2 4.8 0.00 0.00 0.00 43 1009.2
20260905204602 37 265 1.6 3.2 0.00 0.00 0.00 45 1009.3
20260905203601 36 300 3.2 4.8 0.00 0.00 0.00 45 1009.4
20260905203102 37 304 4.8 8.0 0.00 0.00 0.00 44 1009.5
20260905201602 37 259 1.6 4.8 0.00 0.00 0.00 46 1009.7
20260905201102 37 256 3.2 9.7 0.00 0.00 0.00 46 1009.8
20260905200601 37 327 3.2 4.8 0.00 0.00 0.00 46 1009.9
20260905195601 36 167 3.2 4.8 0.00 0.00 0.00 46 1010.1
20260905195102 36 283 3.2 4.8 0.00 0.00 0.00 46 1010.2
20260905194102 36 286 1.6 4.8 0.00 0.00 0.00 47 1010.3
20260905193102 36 266 1.6 4.8 0.00 0.00 0.00 47 1010.4
20260905192602 36 265 3.2 12.9 0.00 0.00 0.00 46 1010.5
20260905192101 36 280 1.6 4.8 0.00 0.00 0.00 48 1010.5
20260905191602 36 277 0.0 4.8 0.00 0.00 0.00 51 1010.6
20260905191102 36 348 3.2 4.8 0.00 0.00 0.00 48 1010.8
20260905190602 36 281 1.6 4.8 0.00 0.00 0.00 50 1010.9
20260905185601 36 275 3.2 4.8 0.00 0.00 0.00 50 1011.0
20260905184602 36 274 1.6 4.8 0.00 0.00 0.00 49 1011.1
20260905184101 36 282 1.6 4.8 0.00 0.00 0.00 50 1011.2
20260905183602 36 307 1.6 8.0 0.00 0.00 0.00 50 1011.3
20260905183101 36 344 1.6 4.8 0.00 0.00 0.00 54 1011.3
20260905182102 36 356 3.2 4.8 0.00 0.00 0.00 52 1011.4
20260905181602 36 22 1.6 4.8 0.00 0.00 0.00 54 1011.4
20260905181101 35 257 1.6 4.8 0.00 0.00 0.00 57 1011.5
20260905180601 35 259 3.2 4.8 0.00 0.00 0.00 52 1011.6
20260905175602 35 247 3.2 4.8 0.00 0.00 0.00 52 1011.7
20260905174602 35 319 3.2 4.8 0.00 0.00 0.00 53 1011.8
20260905174102 35 315 1.6 3.2 0.00 0.00 0.00 54 1011.8
20260905173602 35 314 3.2 4.8 0.00 0.00 0.00 55 1011.9
20260905173102 35 313 1.6 3.2 0.00 0.00 0.00 58 1011.9
20260905172601 35 313 4.8 4.8 0.00 0.00 0.00 54 1012.0
20260905172102 35 291 1.6 4.8 0.00 0.00 0.00 58 1012.1
20260905171601 35 325 1.6 3.2 0.00 0.00 0.00 56 1012.1
20260905171102 34 326 1.6 4.8 0.00 0.00 0.00 54 1012.2
20260905170602 34 222 0.0 4.8 0.00 0.00 0.00 59 1012.2
20260905165602 34 172 3.2 8.0 0.00 0.00 0.00 58 1012.2
20260905165102 33 274 1.6 4.8 0.00 0.00 0.00 59 1012.3
20260905164602 33 274 1.6 4.8 0.00 0.00 0.00 61 1012.4
20260905163602 33 271 3.2 4.8 0.00 0.00 0.00 58 1012.6
20260905162602 33 268 3.2 4.8 0.00 0.00 0.00 63 1012.7
20260905162102 33 287 1.6 4.8 0.00 0.00 0.00 62 1012.8
20260905161601 33 277 1.6 4.8 0.00 0.00 0.00 66 1012.8
20260905160602 33 268 1.6 3.2 0.00 0.00 0.00 63 1012.9
20260905155601 32 263 1.6 3.2 0.00 0.00 0.00 65 1013.0
20260905155102 32 263 0.0 3.2 0.00 0.00 0.00 68 1013.1
20260905154602 32 263 3.2 4.8 0.00 0.00 0.00 65 1013.2
20260905154103 32 261 3.2 4.8 0.00 0.00 0.00 65 1013.1
20260905153602 32 355 1.6 3.2 0.00 0.00 0.00 66 1013.1
20260905153102 32 355 1.6 4.8 0.00 0.00 0.00 66 1013.1
20260905151603 31 267 1.6 3.2 0.00 0.00 0.00 72 1013.2
20260905151102 31 266 1.6 3.2 0.00 0.00 0.00 72 1013.1
20260905145601 30 265 1.6 4.8 0.00 0.00 0.00 73 1013.1
20260905145102 30 268 1.6 3.2 0.00 0.00 0.00 75 1013.1
20260905144602 30 268 1.6 3.2 0.00 0.00 0.00 75 1013.2
20260905144103 30 267 1.6 3.2 0.00 0.00 0.00 75 1013.2
20260905143101 29 267 1.6 3.2 0.00 0.00 0.00 76 1013.3
20260905142102 29 269 1.6 1.6 0.00 0.00 0.00 78 1013.5
20260905141603 28 269 1.6 3.2 0.00 0.00 0.00 78 1013.5